sat.trackr.live / text

‹ back to catalog

STARLINK-30712

NORAD 57935 · 2023-148A

PAYLOAD ACTIVE UNKNOWN

§ Identity

Operator
Country
US
Launch date
2023-09-25
Launch site
AFWTR
Launch vehicle
Mass (kg)
RCS (m²)

Purposes: comms

External: N2YO · Heavens-Above · Gunter

§ Orbital elements

Epoch: 2026-09-20T07:15:07.136352Z

Period
93.85 min
Inclination
53.1596°
Eccentricity
0.0001224
Mean motion
15.34395362 rev/d
Perigee alt
461.9 km
Apogee alt
463.6 km
Semi-major
6,840.9 km
B*
4.9706e-5
RAAN
196.4278°
Arg perigee
93.1899°
Mean anomaly
266.9244°
Rev number
16,827

§ Raw data

STARLINK-307121 57935U 23148A   26263.30216593  .00001303  00000+0  49706-4 0  99912 57935  53.1596 196.4278 0001224  93.1899 266.9244 15.34395362168273

JSON: /api/v1/satellites/57935 · /tle

For live sub-satellite position, see the globe view (requires WebGL).

§ Visibility from observer

Set your observer location to see the next 7 days of passes ≥ 10°. The values pass through the URL so the page stays shareable.

No JS? Fill the form by hand. The geolocation button needs JavaScript.